{"data":{"norad_id":39504,"intl_designator":"2014-004A","name":"TDRS 12","alt_names":[],"object_type":"PAYLOAD","status":"ACTIVE","operator":null,"country":"US","launch_date":"2014-01-24","launch_site_code":"AFETR","launch_vehicle":null,"mission":null,"orbit_class":"UNKNOWN","rcs_meters":7.9433,"size_class":null,"mass_kg":null,"dimensions":null,"purposes":["comms"],"wikipedia_slug":null,"has_3d_model":false,"image_url":null,"decayed_at":null,"tle_current":{"epoch":"2026-05-25T04:03:08.430048Z","epoch_age_seconds":59736,"freshness":"FRESH","line1":"1 39504U 14004A   26145.16884757 -.00000273  00000+0  00000+0 0  9995","line2":"2 39504   3.9558  18.7282 0002352 217.3002  26.5661  1.00275264 44043","mean_motion":1.00275264,"eccentricity":0.0002352,"inclination_deg":3.9558,"raan_deg":18.7282,"arg_perigee_deg":217.3002,"mean_anomaly_deg":26.5661,"bstar":0,"rev_number":4404,"period_min":1436.0470793675,"perigee_km":35775.702783821,"apogee_km":35795.536614973,"semimajor_km":42163.756699397,"source":"CELESTRAK","updated_at":"2026-05-25T13:38:13.948118Z"}}}